User: anonymous   Login
Location: Wilsall
(45.9940°N, 110.6590°W)
Time: 14:17:34
(UTC-06:00)
Language:

GP-B - Orbit

View from above orbital plane
View from above orbital plane
View from above satellite
View from above satellite

Ground track
Ground track

The orbit data is extracted from the following two-line orbital elements,

1 28230U 04014A   16178.89925104 +.00000164 +00000-0 +20354-4 0  9994
2 28230 089.8616 128.5162 0002717 073.0174 287.1346 14.78435497113805
Epoch (UTC): 26 June 2016 21:34:55
Eccentricity: 0.0002717
inclination: 89.8616°
perigee height: 632 km
apogee height: 636 km
right ascension of ascending node: 128.5162°
argument of perigee: 73.0174°
revolutions per day: 14.78435497
mean anomaly at epoch: 287.1346°
orbit number at epoch: 11380

The dashed part of the orbit path shows where the satellite is in the earth's shadow,  

DLR